| time (UTC) | temp F | wind direction | speed MPH | gust MPH | rain 1hr in | rain 24hr in | rain mn in | humidity % | barometer mb |
| 20260506164936 | 60 | 58 | 0.0 | 2.0 | 0.05 | 0.25 | 0.25 | 99 | 1008.5 |
| 20260506164433 | 60 | 152 | 3.0 | 5.0 | 0.00 | 0.24 | 0.24 | 99 | 1008.5 |
| 20260506163931 | 60 | 97 | 2.0 | 3.0 | 0.07 | 0.24 | 0.24 | 99 | 1008.6 |
| 20260506163425 | 60 | 70 | 0.0 | 0.0 | 0.12 | 0.24 | 0.24 | 99 | 1008.7 |
| 20260506162920 | 60 | 188 | 2.0 | 3.0 | 0.05 | 0.23 | 0.23 | 99 | 1008.7 |
| 20260506162418 | 59 | 106 | 0.0 | 0.0 | 0.07 | 0.22 | 0.22 | 99 | 1008.8 |
| 20260506161910 | 59 | 129 | 0.0 | 2.0 | 0.07 | 0.22 | 0.22 | 99 | 1008.8 |
| 20260506161408 | 59 | 70 | 0.0 | 0.0 | 0.05 | 0.21 | 0.21 | 99 | 1008.7 |
| 20260506160905 | 59 | 94 | 0.0 | 1.0 | 0.05 | 0.21 | 0.21 | 99 | 1009.1 |
| 20260506160402 | 59 | 36 | 0.0 | 2.0 | 0.07 | 0.20 | 0.20 | 99 | 1009.2 |
| 20260506155900 | 58 | 70 | 0.0 | 0.0 | 0.12 | 0.20 | 0.20 | 99 | 1008.9 |
| 20260506155356 | 58 | 82 | 0.0 | 1.0 | 0.05 | 0.19 | 0.19 | 99 | 1008.9 |
| 20260506153514 | 57 | 57 | 0.0 | 0.0 | 0.12 | 0.17 | 0.17 | 99 | 1009.5 |
| 20260506153011 | 57 | 51 | 0.0 | 0.0 | 0.07 | 0.16 | 0.16 | 99 | 1009.4 |
| 20260506152508 | 57 | 42 | 0.0 | 1.0 | 0.07 | 0.15 | 0.15 | 98 | 1009.6 |
| 20260506152006 | 57 | 46 | 0.0 | 1.0 | 0.12 | 0.15 | 0.15 | 98 | 1009.6 |
| 20260506151503 | 57 | 39 | 0.0 | 1.0 | 0.05 | 0.14 | 0.14 | 98 | 1009.7 |
| 20260506151001 | 57 | 47 | 0.0 | 0.0 | 0.07 | 0.13 | 0.13 | 98 | 1009.6 |
| 20260506150456 | 57 | 48 | 0.0 | 0.0 | 0.07 | 0.13 | 0.13 | 98 | 1009.6 |
| 20260506145954 | 57 | 49 | 0.0 | 1.0 | 0.05 | 0.12 | 0.12 | 98 | 1009.7 |
| 20260506145450 | 57 | 24 | 1.0 | 1.0 | 0.05 | 0.12 | 0.12 | 98 | 1009.7 |
| 20260506144948 | 57 | 75 | 0.0 | 0.0 | 0.07 | 0.11 | 0.11 | 98 | 1009.8 |
| 20260506144444 | 57 | 56 | 0.0 | 0.0 | 0.07 | 0.11 | 0.11 | 98 | 1010.0 |
| 20260506143943 | 57 | 46 | 0.0 | 2.0 | 0.05 | 0.10 | 0.10 | 98 | 1010.3 |
| 20260506143439 | 57 | 59 | 0.0 | 0.0 | 0.05 | 0.10 | 0.10 | 98 | 1010.5 |
| 20260506142938 | 57 | 41 | 0.0 | 1.0 | 0.07 | 0.09 | 0.09 | 97 | 1010.3 |
| 20260506142435 | 57 | 69 | 0.0 | 0.0 | 0.12 | 0.09 | 0.09 | 97 | 1010.3 |
| 20260506141933 | 56 | 89 | 0.0 | 1.0 | 0.12 | 0.08 | 0.08 | 97 | 1010.4 |
| 20260506141430 | 56 | 85 | 0.0 | 0.0 | 0.12 | 0.07 | 0.07 | 96 | 1010.3 |
| 20260506140929 | 57 | 84 | 0.0 | 0.0 | 0.12 | 0.06 | 0.06 | 96 | 1010.5 |
| 20260506140426 | 57 | 84 | 0.0 | 0.0 | 0.19 | 0.05 | 0.05 | 95 | 1010.7 |
| 20260506135922 | 57 | 76 | 0.0 | 1.0 | 0.19 | 0.04 | 0.04 | 95 | 1010.6 |
| 20260506135420 | 57 | 69 | 0.0 | 1.0 | 0.07 | 0.02 | 0.02 | 94 | 1010.4 |
| 20260506134915 | 57 | 45 | 0.0 | 0.0 | 0.00 | 0.01 | 0.01 | 92 | 1010.4 |
| 20260506134412 | 57 | 44 | 0.0 | 1.0 | 0.05 | 0.01 | 0.01 | 91 | 1010.1 |
| 20260506133909 | 58 | 74 | 0.0 | 1.0 | 0.05 | 0.01 | 0.01 | 90 | 1010.4 |
| 20260506133406 | 57 | 48 | 0.0 | 1.0 | 0.00 | 0.00 | 0.00 | 89 | 1010.3 |
| 20260506132902 | 57 | 45 | 0.0 | 1.0 | 0.00 | 0.00 | 0.00 | 88 | 1010.1 |
| 20260506132359 | 57 | 48 | 0.0 | 1.0 | 0.00 | 0.00 | 0.00 | 88 | 1010.2 |
| 20260506131858 | 57 | 32 | 1.0 | 2.0 | 0.00 | 0.00 | 0.00 | 87 | 1010.3 |
| 20260506131353 | 57 | 91 | 0.0 | 1.0 | 0.00 | 0.00 | 0.00 | 88 | 1010.2 |
| 20260506130851 | 57 | 33 | 1.0 | 1.0 | 0.00 | 0.00 | 0.00 | 89 | 1010.2 |
| 20260506130347 | 57 | 87 | 0.0 | 1.0 | 0.00 | 0.00 | 0.00 | 90 | 1010.1 |
| 20260506125845 | 56 | 64 | 0.0 | 1.0 | 0.00 | 0.00 | 0.00 | 91 | 1010.0 |
| 20260506125343 | 56 | 91 | 0.0 | 2.0 | 0.00 | 0.00 | 0.00 | 91 | 1010.1 |
| 20260506124841 | 56 | 89 | 0.0 | 0.0 | 0.00 | 0.00 | 0.00 | 92 | 1009.8 |
| 20260506124338 | 55 | 44 | 0.0 | 0.0 | 0.00 | 0.00 | 0.00 | 92 | 1010.0 |
| 20260506123836 | 55 | 48 | 0.0 | 0.0 | 0.00 | 0.00 | 0.00 | 92 | 1010.3 |
| 20260506123334 | 55 | 113 | 0.0 | 1.0 | 0.00 | 0.00 | 0.00 | 92 | 1010.2 |
| 20260506122831 | 55 | 86 | 0.0 | 1.0 | 0.00 | 0.00 | 0.00 | 92 | 1010.3 |
| 20260506122327 | 55 | 54 | 0.0 | 1.0 | 0.00 | 0.00 | 0.00 | 92 | 1010.5 |
| 20260506121826 | 55 | 93 | 0.0 | 1.0 | 0.00 | 0.00 | 0.00 | 92 | 1010.5 |
| 20260506121322 | 55 | 69 | 0.0 | 0.0 | 0.00 | 0.00 | 0.00 | 92 | 1010.6 |
| 20260506120820 | 55 | 61 | 0.0 | 1.0 | 0.00 | 0.00 | 0.00 | 92 | 1011.0 |
| 20260506120318 | 55 | 76 | 0.0 | 0.0 | 0.00 | 0.00 | 0.00 | 92 | 1011.0 |
| 20260506115815 | 55 | 57 | 0.0 | 1.0 | 0.00 | 0.00 | 0.00 | 92 | 1011.1 |
| 20260506115313 | 55 | 37 | 1.0 | 1.0 | 0.00 | 0.00 | 0.00 | 92 | 1011.0 |
| 20260506114810 | 55 | 27 | 1.0 | 1.0 | 0.00 | 0.00 | 0.00 | 93 | 1010.7 |
| 20260506114308 | 54 | 45 | 0.0 | 1.0 | 0.00 | 0.00 | 0.00 | 93 | 1010.6 |
| 20260506113806 | 54 | 45 | 0.0 | 1.0 | 0.00 | 0.00 | 0.00 | 94 | 1010.6 |
| 20260506113304 | 54 | 47 | 0.0 | 0.0 | 0.00 | 0.00 | 0.00 | 94 | 1010.6 |
| 20260506112800 | 54 | 47 | 0.0 | 1.0 | 0.00 | 0.00 | 0.00 | 94 | 1010.8 |
| 20260506112257 | 53 | 50 | 0.0 | 1.0 | 0.00 | 0.00 | 0.00 | 95 | 1010.5 |
| 20260506111754 | 53 | 336 | 1.0 | 2.0 | 0.00 | 0.00 | 0.00 | 95 | 1010.6 |
| 20260506111253 | 53 | 47 | 0.0 | 1.0 | 0.00 | 0.00 | 0.00 | 95 | 1009.8 |
| 20260506110749 | 53 | 62 | 0.0 | 1.0 | 0.00 | 0.00 | 0.00 | 95 | 1010.1 |
| 20260506110247 | 53 | 60 | 0.0 | 1.0 | 0.00 | 0.00 | 0.00 | 96 | 1010.2 |
| 20260506105743 | 53 | 76 | 0.0 | 0.0 | 0.00 | 0.00 | 0.00 | 96 | 1010.6 |
| 20260506105240 | 53 | 84 | 1.0 | 1.0 | 0.00 | 0.00 | 0.00 | 96 | 1010.4 |
| 20260506104738 | 53 | 17 | 1.0 | 1.0 | 0.00 | 0.00 | 0.00 | 96 | 1010.0 |
| 20260506104235 | 53 | 21 | 0.0 | 0.0 | 0.00 | 0.00 | 0.00 | 96 | 1009.8 |
| 20260506103732 | 53 | 21 | 1.0 | 1.0 | 0.00 | 0.00 | 0.00 | 96 | 1010.1 |
| 20260506103230 | 53 | 21 | 0.0 | 0.0 | 0.00 | 0.00 | 0.00 | 96 | 1010.3 |
| 20260506102727 | 53 | 20 | 0.0 | 1.0 | 0.00 | 0.00 | 0.00 | 96 | 1010.5 |
| 20260506102225 | 53 | 26 | 1.0 | 1.0 | 0.00 | 0.00 | 0.00 | 96 | 1010.1 |
| 20260506101722 | 52 | 27 | 0.0 | 0.0 | 0.00 | 0.00 | 0.00 | 96 | 1010.3 |
| 20260506101218 | 52 | 27 | 0.0 | 0.0 | 0.00 | 0.00 | 0.00 | 96 | 1010.3 |
| 20260506100716 | 53 | 26 | 0.0 | 0.0 | 0.00 | 0.00 | 0.00 | 96 | 1010.4 |
| 20260506100214 | 52 | 26 | 0.0 | 0.0 | 0.00 | 0.00 | 0.00 | 96 | 1010.3 |
| 20260506095712 | 52 | 26 | 0.0 | 1.0 | 0.00 | 0.00 | 0.00 | 95 | 1010.2 |
| 20260506095209 | 52 | 26 | 0.0 | 0.0 | 0.00 | 0.00 | 0.00 | 95 | 1010.0 |
| 20260506094706 | 52 | 26 | 0.0 | 1.0 | 0.00 | 0.00 | 0.00 | 95 | 1010.2 |
| 20260506094204 | 52 | 26 | 0.0 | 1.0 | 0.00 | 0.00 | 0.00 | 95 | 1010.2 |
| 20260506093703 | 52 | 26 | 0.0 | 1.0 | 0.00 | 0.00 | 0.00 | 95 | 1010.2 |
| 20260506093159 | 52 | 29 | 0.0 | 1.0 | 0.00 | 0.00 | 0.00 | 95 | 1010.3 |
| 20260506092657 | 52 | 29 | 0.0 | 1.0 | 0.00 | 0.00 | 0.00 | 95 | 1010.2 |
| 20260506092154 | 52 | 29 | 0.0 | 0.0 | 0.00 | 0.00 | 0.00 | 95 | 1010.2 |
| 20260506091652 | 52 | 29 | 0.0 | 0.0 | 0.00 | 0.00 | 0.00 | 95 | 1010.4 |
| 20260506091149 | 52 | 29 | 0.0 | 1.0 | 0.00 | 0.00 | 0.00 | 94 | 1010.4 |
| 20260506090647 | 52 | 29 | 0.0 | 0.0 | 0.00 | 0.00 | 0.00 | 94 | 1010.3 |
| 20260506090143 | 52 | 29 | 0.0 | 0.0 | 0.00 | 0.00 | 0.00 | 94 | 1010.4 |
| 20260506085640 | 52 | 29 | 1.0 | 1.0 | 0.00 | 0.00 | 0.00 | 94 | 1010.4 |
| 20260506085136 | 52 | 29 | 0.0 | 1.0 | 0.00 | 0.00 | 0.00 | 94 | 1010.4 |
| 20260506084633 | 53 | 29 | 0.0 | 0.0 | 0.00 | 0.00 | 0.00 | 93 | 1010.4 |
| 20260506084130 | 53 | 29 | 0.0 | 0.0 | 0.00 | 0.00 | 0.00 | 93 | 1010.8 |
| 20260506083627 | 53 | 29 | 0.0 | 0.0 | 0.00 | 0.00 | 0.00 | 93 | 1010.8 |
| 20260506083125 | 53 | 29 | 0.0 | 1.0 | 0.00 | 0.00 | 0.00 | 93 | 1010.9 |
| 20260506082621 | 53 | 29 | 0.0 | 1.0 | 0.00 | 0.00 | 0.00 | 93 | 1010.9 |
| 20260506082117 | 53 | 29 | 0.0 | 0.0 | 0.00 | 0.00 | 0.00 | 93 | 1011.0 |
| 20260506081615 | 53 | 29 | 0.0 | 0.0 | 0.00 | 0.00 | 0.00 | 93 | 1010.9 |
| 20260506081112 | 53 | 29 | 0.0 | 0.0 | 0.00 | 0.00 | 0.00 | 93 | 1010.9 |
| 20260506080610 | 53 | 29 | 0.0 | 1.0 | 0.00 | 0.00 | 0.00 | 93 | 1011.1 |
| 20260506080106 | 53 | 29 | 0.0 | 1.0 | 0.00 | 0.00 | 0.00 | 92 | 1011.0 |
| 20260506073050 | 54 | 29 | 0.0 | 0.0 | 0.00 | 0.00 | 0.00 | 91 | 1011.2 |
| 20260506072547 | 54 | 29 | 0.0 | 1.0 | 0.00 | 0.00 | 0.00 | 91 | 1011.1 |
| 20260506072045 | 54 | 29 | 0.0 | 1.0 | 0.00 | 0.00 | 0.00 | 91 | 1011.2 |
| 20260506071542 | 54 | 29 | 1.0 | 1.0 | 0.00 | 0.00 | 0.00 | 91 | 1011.3 |
| 20260506071040 | 55 | 29 | 0.0 | 1.0 | 0.00 | 0.00 | 0.00 | 91 | 1011.2 |
| 20260506070537 | 55 | 29 | 0.0 | 0.0 | 0.00 | 0.00 | 0.00 | 92 | 1011.4 |
| 20260506062514 | 56 | 30 | 1.0 | 1.0 | 0.00 | 0.00 | 0.00 | 91 | 1011.8 |
| 20260506062011 | 56 | 30 | 0.0 | 1.0 | 0.00 | 0.00 | 0.00 | 91 | 1011.8 |
| 20260506061506 | 56 | 30 | 0.0 | 0.0 | 0.00 | 0.00 | 0.00 | 90 | 1011.8 |
| 20260506061004 | 56 | 30 | 0.0 | 1.0 | 0.00 | 0.00 | 0.00 | 91 | 1011.7 |
| 20260506060503 | 56 | 30 | 0.0 | 0.0 | 0.00 | 0.00 | 0.00 | 91 | 1011.9 |
| 20260506050932 | 57 | 30 | 0.0 | 0.0 | 0.00 | 0.00 | 0.00 | 92 | 1012.0 |
| 20260506050429 | 57 | 30 | 0.0 | 0.0 | 0.00 | 0.00 | 0.00 | 93 | 1012.0 |
| 20260506044919 | 57 | 30 | 0.0 | 0.0 | 0.00 | 0.00 | 0.00 | 93 | 1011.7 |
| 20260506044418 | 57 | 30 | 0.0 | 0.0 | 0.00 | 0.00 | 0.00 | 94 | 1011.7 |
| 20260506043914 | 58 | 30 | 0.0 | 0.0 | 0.00 | 0.00 | 0.00 | 94 | 1011.7 |
| 20260506043412 | 58 | 30 | 0.0 | 0.0 | 0.00 | 0.00 | 0.00 | 95 | 1011.7 |
| 20260506042910 | 58 | 30 | 0.0 | 0.0 | 0.00 | 0.00 | 0.00 | 96 | 1011.8 |
| 20260506042409 | 58 | 30 | 0.0 | 0.0 | 0.00 | 0.00 | 0.00 | 96 | 1011.8 |
| 20260506041907 | 58 | 30 | 0.0 | 0.0 | 0.00 | 0.00 | 0.00 | 95 | 1011.7 |
| 20260506041404 | 58 | 29 | 0.0 | 0.0 | 0.00 | 0.00 | 0.00 | 95 | 1011.7 |
| 20260506040901 | 58 | 28 | 0.0 | 0.0 | 0.00 | 0.00 | 0.00 | 95 | 1011.7 |
| 20260506040358 | 58 | 28 | 0.0 | 1.0 | 0.00 | 0.00 | 0.00 | 95 | 1011.6 |
| 20260506035854 | 59 | 27 | 1.0 | 1.0 | 0.00 | 0.00 | 0.00 | 95 | 1011.5 |
| 20260506035352 | 59 | 29 | 0.0 | 1.0 | 0.00 | 0.00 | 0.00 | 95 | 1011.4 |
| 20260506034849 | 58 | 33 | 0.0 | 1.0 | 0.00 | 0.00 | 0.00 | 95 | 1011.4 |
| 20260506034346 | 58 | 33 | 0.0 | 2.0 | 0.00 | 0.00 | 0.00 | 95 | 1011.2 |
| 20260506033843 | 59 | 36 | 0.0 | 1.0 | 0.00 | 0.00 | 0.00 | 96 | 1011.0 |
| 20260506033340 | 59 | 36 | 0.0 | 2.0 | 0.00 | 0.00 | 0.00 | 96 | 1011.1 |
| 20260506032837 | 59 | 56 | 0.0 | 1.0 | 0.00 | 0.00 | 0.00 | 96 | 1011.1 |
| 20260506032333 | 59 | 57 | 0.0 | 1.0 | 0.00 | 0.00 | 0.00 | 96 | 1011.2 |
| 20260506031830 | 59 | 57 | 1.0 | 1.0 | 0.00 | 0.00 | 0.00 | 95 | 1010.9 |
| 20260506031328 | 59 | 47 | 0.0 | 0.0 | 0.00 | 0.00 | 0.00 | 95 | 1010.9 |
| 20260506030825 | 59 | 35 | 0.0 | 1.0 | 0.00 | 0.00 | 0.00 | 95 | 1011.0 |
| 20260506030323 | 59 | 35 | 0.0 | 0.0 | 0.00 | 0.00 | 0.00 | 94 | 1010.9 |
| 20260506025820 | 59 | 35 | 0.0 | 1.0 | 0.00 | 0.00 | 0.00 | 94 | 1011.0 |
| 20260506025316 | 60 | 50 | 0.0 | 0.0 | 0.00 | 0.00 | 0.00 | 93 | 1010.7 |
| 20260506024813 | 60 | 50 | 0.0 | 1.0 | 0.00 | 0.00 | 0.00 | 93 | 1010.9 |
| 20260506024310 | 60 | 52 | 0.0 | 1.0 | 0.00 | 0.00 | 0.00 | 93 | 1011.1 |
| 20260506023806 | 60 | 53 | 0.0 | 0.0 | 0.00 | 0.00 | 0.00 | 93 | 1011.3 |
| 20260506023303 | 60 | 53 | 0.0 | 0.0 | 0.00 | 0.00 | 0.00 | 92 | 1011.3 |
| 20260506022759 | 60 | 37 | 1.0 | 1.0 | 0.00 | 0.00 | 0.00 | 91 | 1011.7 |
| 20260506022258 | 60 | 43 | 0.0 | 2.0 | 0.00 | 0.00 | 0.00 | 90 | 1011.2 |
| 20260506021756 | 61 | 30 | 1.0 | 2.0 | 0.00 | 0.00 | 0.00 | 88 | 1011.4 |
| 20260506021252 | 61 | 44 | 0.0 | 1.0 | 0.00 | 0.00 | 0.00 | 88 | 1010.9 |
| 20260506020749 | 61 | 50 | 1.0 | 1.0 | 0.00 | 0.00 | 0.00 | 88 | 1010.9 |
| 20260506020247 | 61 | 31 | 2.0 | 2.0 | 0.00 | 0.00 | 0.00 | 89 | 1011.0 |
| 20260506015744 | 60 | 41 | 1.0 | 2.0 | 0.00 | 0.00 | 0.00 | 90 | 1010.8 |
| 20260506015241 | 60 | 87 | 1.0 | 1.0 | 0.00 | 0.00 | 0.00 | 90 | 1011.1 |
| 20260506014738 | 61 | 84 | 0.0 | 1.0 | 0.00 | 0.00 | 0.00 | 90 | 1010.9 |
| 20260506014235 | 61 | 38 | 0.0 | 1.0 | 0.00 | 0.00 | 0.00 | 90 | 1010.8 |
| 20260506013732 | 61 | 35 | 1.0 | 1.0 | 0.00 | 0.00 | 0.00 | 89 | 1010.8 |
| 20260506013229 | 61 | 31 | 0.0 | 0.0 | 0.00 | 0.00 | 0.00 | 87 | 1010.7 |
| 20260506012725 | 62 | 30 | 1.0 | 1.0 | 0.00 | 0.00 | 0.00 | 85 | 1010.6 |
| 20260506012222 | 62 | 65 | 0.0 | 1.0 | 0.00 | 0.00 | 0.00 | 83 | 1010.7 |
| 20260506011720 | 63 | 65 | 1.0 | 1.0 | 0.00 | 0.00 | 0.00 | 82 | 1010.6 |
| 20260506011216 | 63 | 64 | 1.0 | 1.0 | 0.00 | 0.00 | 0.00 | 79 | 1010.6 |
| 20260506010714 | 63 | 65 | 1.0 | 1.0 | 0.00 | 0.00 | 0.00 | 78 | 1010.9 |
| 20260506010211 | 63 | 67 | 1.0 | 1.0 | 0.00 | 0.00 | 0.00 | 79 | 1010.6 |
| 20260506005709 | 63 | 66 | 0.0 | 0.0 | 0.00 | 0.00 | 0.00 | 78 | 1010.5 |
| 20260506005205 | 64 | 66 | 0.0 | 0.0 | 0.00 | 0.00 | 0.00 | 77 | 1010.4 |
| 20260506004701 | 64 | 67 | 1.0 | 1.0 | 0.00 | 0.00 | 0.00 | 76 | 1010.3 |
| 20260506004159 | 64 | 42 | 0.0 | 0.0 | 0.00 | 0.00 | 0.00 | 75 | 1010.5 |
| 20260506003654 | 64 | 45 | 0.0 | 1.0 | 0.00 | 0.00 | 0.00 | 74 | 1010.4 |
| 20260506003151 | 63 | 44 | 1.0 | 1.0 | 0.00 | 0.00 | 0.00 | 76 | 1010.4 |
| 20260506002647 | 63 | 31 | 0.0 | 1.0 | 0.00 | 0.00 | 0.00 | 77 | 1010.2 |
| 20260506002143 | 64 | 39 | 1.0 | 2.0 | 0.00 | 0.00 | 0.00 | 76 | 1010.1 |
| 20260506001639 | 64 | 38 | 1.0 | 2.0 | 0.00 | 0.00 | 0.00 | 75 | 1009.8 |
| 20260506001137 | 65 | 43 | 1.0 | 2.0 | 0.00 | 0.00 | 0.00 | 72 | 1009.7 |
| 20260506000634 | 64 | 42 | 1.0 | 2.0 | 0.00 | 0.00 | 0.00 | 72 | 1009.8 |
| 20260506000131 | 65 | 50 | 0.0 | 0.0 | 0.00 | 0.00 | 0.00 | 73 | 1009.8 |
| 20260505235629 | 65 | 50 | 1.0 | 1.0 | 0.00 | 0.00 | 0.00 | 71 | 1009.7 |
| 20260505235126 | 65 | 50 | 0.0 | 1.0 | 0.00 | 0.00 | 0.00 | 71 | 1009.6 |
| 20260505234623 | 65 | 50 | 0.0 | 1.0 | 0.00 | 0.00 | 0.00 | 72 | 1009.6 |
| 20260505234119 | 65 | 49 | 0.0 | 0.0 | 0.00 | 0.00 | 0.00 | 72 | 1009.5 |
| 20260505233617 | 65 | 48 | 0.0 | 0.0 | 0.00 | 0.00 | 0.00 | 72 | 1009.5 |
| 20260505233114 | 66 | 48 | 0.0 | 1.0 | 0.00 | 0.00 | 0.00 | 72 | 1009.6 |
| 20260505232612 | 66 | 50 | 1.0 | 1.0 | 0.00 | 0.00 | 0.00 | 71 | 1009.8 |
| 20260505232109 | 66 | 53 | 0.0 | 1.0 | 0.00 | 0.00 | 0.00 | 72 | 1009.8 |
| 20260505231606 | 66 | 59 | 0.0 | 0.0 | 0.00 | 0.00 | 0.00 | 72 | 1009.8 |
| 20260505231104 | 66 | 57 | 0.0 | 1.0 | 0.00 | 0.00 | 0.00 | 72 | 1009.8 |
| 20260505230556 | 66 | 60 | 0.0 | 0.0 | 0.00 | 0.00 | 0.00 | 72 | 1009.6 |
| 20260505230052 | 66 | 25 | 1.0 | 1.0 | 0.00 | 0.00 | 0.00 | 70 | 1009.5 |
| 20260505225550 | 67 | 36 | 1.0 | 1.0 | 0.00 | 0.00 | 0.00 | 70 | 1009.6 |
| 20260505225045 | 67 | 35 | 1.0 | 1.0 | 0.00 | 0.00 | 0.00 | 67 | 1009.3 |
| 20260505224543 | 67 | 79 | 0.0 | 0.0 | 0.00 | 0.00 | 0.00 | 70 | 1009.4 |
| 20260505224040 | 66 | 72 | 0.0 | 1.0 | 0.00 | 0.00 | 0.00 | 70 | 1009.5 |
| 20260505223537 | 66 | 81 | 0.0 | 1.0 | 0.00 | 0.00 | 0.00 | 70 | 1009.4 |
| 20260505223033 | 67 | 81 | 0.0 | 1.0 | 0.00 | 0.00 | 0.00 | 71 | 1009.4 |
| 20260505222529 | 67 | 43 | 1.0 | 2.0 | 0.00 | 0.00 | 0.00 | 69 | 1009.3 |
| 20260505222026 | 67 | 43 | 1.0 | 5.0 | 0.00 | 0.00 | 0.00 | 68 | 1009.7 |
| 20260505221523 | 67 | 21 | 1.0 | 3.0 | 0.00 | 0.00 | 0.00 | 69 | 1009.8 |
| 20260505221019 | 67 | 129 | 2.0 | 5.0 | 0.00 | 0.00 | 0.00 | 67 | 1009.7 |
| 20260505220517 | 66 | 8 | 1.0 | 3.0 | 0.00 | 0.00 | 0.00 | 71 | 1009.5 |
| 20260505220015 | 67 | 55 | 2.0 | 3.0 | 0.00 | 0.00 | 0.00 | 71 | 1009.3 |
| 20260505215512 | 69 | 19 | 4.0 | 7.0 | 0.00 | 0.00 | 0.00 | 67 | 1009.7 |
| 20260505215010 | 72 | 59 | 6.0 | 11.0 | 0.00 | 0.00 | 0.00 | 55 | 1009.5 |
| 20260505214508 | 78 | 287 | 3.0 | 7.0 | 0.00 | 0.00 | 0.00 | 35 | 1008.8 |
| 20260505214004 | 78 | 60 | 3.0 | 8.0 | 0.00 | 0.00 | 0.00 | 32 | 1008.0 |
| 20260505213502 | 79 | 286 | 2.0 | 3.0 | 0.00 | 0.00 | 0.00 | 30 | 1008.0 |
| 20260505212958 | 79 | 272 | 2.0 | 5.0 | 0.00 | 0.00 | 0.00 | 30 | 1007.9 |
| 20260505212455 | 79 | 242 | 3.0 | 7.0 | 0.00 | 0.00 | 0.00 | 30 | 1007.6 |
| 20260505211952 | 79 | 303 | 4.0 | 9.0 | 0.00 | 0.00 | 0.00 | 31 | 1007.5 |
| 20260505211449 | 80 | 262 | 3.0 | 3.0 | 0.00 | 0.00 | 0.00 | 30 | 1007.3 |
| 20260505210945 | 80 | 294 | 3.0 | 7.0 | 0.00 | 0.00 | 0.00 | 30 | 1007.3 |
| 20260505210442 | 80 | 356 | 3.0 | 6.0 | 0.00 | 0.00 | 0.00 | 29 | 1007.2 |
| 20260505205939 | 80 | 93 | 1.0 | 3.0 | 0.00 | 0.00 | 0.00 | 30 | 1007.3 |
| 20260505205438 | 80 | 202 | 1.0 | 5.0 | 0.00 | 0.00 | 0.00 | 32 | 1007.1 |
| 20260505204934 | 81 | 265 | 1.0 | 8.0 | 0.00 | 0.00 | 0.00 | 30 | 1007.0 |
| 20260505204432 | 81 | 260 | 2.0 | 5.0 | 0.00 | 0.00 | 0.00 | 31 | 1007.0 |
| 20260505203929 | 81 | 232 | 2.0 | 7.0 | 0.00 | 0.00 | 0.00 | 30 | 1007.0 |
| 20260505203425 | 80 | 224 | 6.0 | 10.0 | 0.00 | 0.00 | 0.00 | 30 | 1007.1 |
| 20260505202922 | 80 | 358 | 3.0 | 8.0 | 0.00 | 0.00 | 0.00 | 31 | 1007.0 |
| 20260505202418 | 80 | 319 | 3.0 | 7.0 | 0.00 | 0.00 | 0.00 | 32 | 1007.1 |
| 20260505201915 | 81 | 302 | 3.0 | 8.0 | 0.00 | 0.00 | 0.00 | 32 | 1006.9 |
| 20260505201412 | 81 | 74 | 1.0 | 3.0 | 0.00 | 0.00 | 0.00 | 29 | 1006.9 |
| 20260505200910 | 81 | 306 | 4.0 | 10.0 | 0.00 | 0.00 | 0.00 | 27 | 1006.9 |
| 20260505200407 | 81 | 22 | 2.0 | 6.0 | 0.00 | 0.00 | 0.00 | 30 | 1007.0 |
| 20260505195902 | 82 | 269 | 7.0 | 11.0 | 0.00 | 0.00 | 0.00 | 27 | 1007.1 |
| 20260505195400 | 82 | 42 | 1.0 | 5.0 | 0.00 | 0.00 | 0.00 | 29 | 1007.4 |
| 20260505194857 | 83 | 308 | 7.0 | 9.0 | 0.00 | 0.00 | 0.00 | 27 | 1007.2 |
| 20260505194355 | 83 | 213 | 4.0 | 6.0 | 0.00 | 0.00 | 0.00 | 32 | 1007.2 |
| 20260505193854 | 83 | 308 | 1.0 | 7.0 | 0.00 | 0.00 | 0.00 | 29 | 1007.2 |
| 20260505193353 | 82 | 302 | 4.0 | 10.0 | 0.00 | 0.00 | 0.00 | 29 | 1007.2 |
| 20260505192850 | 82 | 278 | 3.0 | 11.0 | 0.00 | 0.00 | 0.00 | 30 | 1007.5 |
| 20260505192348 | 82 | 326 | 5.0 | 8.0 | 0.00 | 0.00 | 0.00 | 29 | 1007.3 |
| 20260505191845 | 82 | 23 | 2.0 | 8.0 | 0.00 | 0.00 | 0.00 | 32 | 1007.6 |
| 20260505191344 | 82 | 26 | 4.0 | 7.0 | 0.00 | 0.00 | 0.00 | 30 | 1007.6 |
| 20260505190840 | 82 | 335 | 5.0 | 8.0 | 0.00 | 0.00 | 0.00 | 27 | 1007.4 |
| 20260505190336 | 82 | 257 | 1.0 | 14.0 | 0.00 | 0.00 | 0.00 | 33 | 1007.4 |
| 20260505185831 | 82 | 300 | 6.0 | 8.0 | 0.00 | 0.00 | 0.00 | 30 | 1007.6 |
| 20260505185328 | 82 | 332 | 2.0 | 3.0 | 0.00 | 0.00 | 0.00 | 32 | 1007.9 |
| 20260505184824 | 81 | 235 | 2.0 | 3.0 | 0.00 | 0.00 | 0.00 | 34 | 1007.9 |
| 20260505184322 | 81 | 304 | 5.0 | 7.0 | 0.00 | 0.00 | 0.00 | 33 | 1007.9 |
| 20260505183819 | 81 | 136 | 6.0 | 9.0 | 0.00 | 0.00 | 0.00 | 34 | 1007.8 |
| 20260505183315 | 80 | 150 | 3.0 | 7.0 | 0.00 | 0.00 | 0.00 | 34 | 1008.0 |
| 20260505182812 | 80 | 276 | 3.0 | 10.0 | 0.00 | 0.00 | 0.00 | 36 | 1007.9 |
| 20260505182309 | 81 | 331 | 3.0 | 5.0 | 0.00 | 0.00 | 0.00 | 38 | 1008.0 |
| 20260505181806 | 80 | 309 | 4.0 | 5.0 | 0.00 | 0.00 | 0.00 | 34 | 1008.2 |
| 20260505181303 | 81 | 237 | 6.0 | 14.0 | 0.00 | 0.00 | 0.00 | 32 | 1008.1 |
| 20260505180759 | 80 | 208 | 3.0 | 8.0 | 0.00 | 0.00 | 0.00 | 33 | 1008.2 |
| 20260505180256 | 80 | 232 | 5.0 | 8.0 | 0.00 | 0.00 | 0.00 | 32 | 1008.1 |
| 20260505175752 | 81 | 103 | 4.0 | 8.0 | 0.00 | 0.00 | 0.00 | 34 | 1008.1 |
| 20260505175249 | 82 | 261 | 1.0 | 6.0 | 0.00 | 0.00 | 0.00 | 35 | 1008.2 |
| 20260505174745 | 82 | 241 | 6.0 | 10.0 | 0.00 | 0.00 | 0.00 | 32 | 1008.1 |
| 20260505174243 | 82 | 286 | 5.0 | 9.0 | 0.00 | 0.00 | 0.00 | 32 | 1008.4 |
| 20260505173739 | 82 | 294 | 5.0 | 10.0 | 0.00 | 0.00 | 0.00 | 31 | 1008.5 |
| 20260505173236 | 81 | 12 | 4.0 | 14.0 | 0.00 | 0.00 | 0.00 | 32 | 1008.4 |
| 20260505172733 | 81 | 218 | 10.0 | 11.0 | 0.00 | 0.00 | 0.00 | 33 | 1008.5 |
| 20260505172229 | 82 | 272 | 6.0 | 7.0 | 0.00 | 0.00 | 0.00 | 37 | 1008.6 |
| 20260505171729 | 82 | 246 | 3.0 | 8.0 | 0.00 | 0.00 | 0.00 | 37 | 1008.4 |
| 20260505171227 | 80 | 305 | 3.0 | 10.0 | 0.00 | 0.00 | 0.00 | 37 | 1008.8 |
| 20260505170723 | 81 | 274 | 2.0 | 5.0 | 0.00 | 0.00 | 0.00 | 36 | 1008.7 |
| 20260505170220 | 80 | 44 | 3.0 | 9.0 | 0.00 | 0.00 | 0.00 | 34 | 1008.6 |
| 20260505165716 | 81 | 346 | 5.0 | 7.0 | 0.00 | 0.00 | 0.00 | 35 | 1008.7 |